Time,TemperatureF,DewpointF,PressureIn,WindDirection,WindDirectionDegrees,WindSpeedMPH,WindSpeedGustMPH,Humidity,HourlyPrecipIn,Conditions,Clouds,dailyrainin,SolarRadiationWatts/m^2,SoftwareType,DateUTC
2013-03-27 00:02:00,38.0,21.0,-100.00,ESE,123,2.0,5.0,50,0.00,,,0.00,0.000000,,2013-03-27 05:02:00,
2013-03-27 00:12:00,38.0,21.0,-100.00,ESE,123,2.0,5.0,50,0.00,,,0.00,0.000000,,2013-03-27 05:12:00,
2013-03-27 00:23:00,38.0,21.0,-100.00,ESE,123,2.0,5.0,50,0.00,,,0.00,0.000000,,2013-03-27 05:23:00,
2013-03-27 00:32:00,38.0,21.0,-100.00,ESE,123,2.0,5.0,50,0.00,,,0.00,0.000000,,2013-03-27 05:32:00,
2013-03-27 01:02:00,36.0,24.0,-100.00,SE,124,3.0,4.0,61,0.00,,,0.00,0.000000,,2013-03-27 06:02:00,
2013-03-27 01:12:00,36.0,24.0,-100.00,SE,124,3.0,4.0,61,0.00,,,0.00,0.000000,,2013-03-27 06:12:00,
2013-03-27 01:22:00,36.0,24.0,-100.00,SE,124,3.0,4.0,61,0.00,,,0.00,0.000000,,2013-03-27 06:22:00,
2013-03-27 01:32:00,36.0,24.0,-100.00,SE,124,3.0,4.0,61,0.00,,,0.00,0.000000,,2013-03-27 06:32:00,
2013-03-27 02:02:00,34.0,23.0,-100.00,SW,230,3.0,5.0,65,0.00,,,0.00,0.000000,,2013-03-27 07:02:00,
2013-03-27 02:12:00,34.0,23.0,-100.00,SW,230,3.0,5.0,65,0.00,,,0.00,0.000000,,2013-03-27 07:12:00,
2013-03-27 02:22:00,34.0,23.0,-100.00,SW,230,3.0,5.0,65,0.00,,,0.00,0.000000,,2013-03-27 07:22:00,
2013-03-27 02:32:00,34.0,23.0,-100.00,SW,230,3.0,5.0,65,0.00,,,0.00,0.000000,,2013-03-27 07:32:00,
2013-03-27 03:02:00,37.0,22.0,-100.00,SSW,193,3.0,6.0,55,0.00,,,0.00,0.000000,,2013-03-27 08:02:00,
2013-03-27 03:12:00,37.0,22.0,-100.00,SSW,193,3.0,6.0,55,0.00,,,0.00,0.000000,,2013-03-27 08:12:00,
2013-03-27 03:22:00,37.0,22.0,-100.00,SSW,193,3.0,6.0,55,0.00,,,0.00,0.000000,,2013-03-27 08:22:00,
2013-03-27 03:32:00,37.0,22.0,-100.00,SSW,193,3.0,6.0,55,0.00,,,0.00,0.000000,,2013-03-27 08:32:00,
2013-03-27 04:02:00,36.0,24.0,-100.00,SSW,198,3.0,7.0,62,0.00,,,0.00,0.000000,,2013-03-27 09:02:00,
2013-03-27 04:12:00,36.0,24.0,-100.00,SSW,198,3.0,7.0,62,0.00,,,0.00,0.000000,,2013-03-27 09:12:00,
2013-03-27 04:22:00,36.0,24.0,-100.00,SSW,198,3.0,7.0,62,0.00,,,0.00,0.000000,,2013-03-27 09:22:00,
2013-03-27 04:32:00,36.0,24.0,-100.00,SSW,198,3.0,7.0,62,0.00,,,0.00,0.000000,,2013-03-27 09:32:00,
2013-03-27 05:02:00,36.0,26.0,-100.00,South,186,3.0,7.0,66,0.00,,,0.00,0.000000,,2013-03-27 10:02:00,
2013-03-27 05:12:00,36.0,26.0,-100.00,South,186,3.0,7.0,66,0.00,,,0.00,0.000000,,2013-03-27 10:12:00,
2013-03-27 05:23:00,36.0,26.0,-100.00,South,186,3.0,7.0,66,0.00,,,0.00,0.000000,,2013-03-27 10:23:00,
2013-03-27 05:32:00,36.0,26.0,-100.00,South,186,3.0,7.0,66,0.00,,,0.00,0.000000,,2013-03-27 10:32:00,
2013-03-27 06:02:00,36.0,25.0,-100.00,South,188,4.0,8.0,65,0.00,,,0.00,0.000000,,2013-03-27 11:02:00,
2013-03-27 06:12:00,36.0,25.0,-100.00,South,188,4.0,8.0,65,0.00,,,0.00,0.000000,,2013-03-27 11:12:00,
2013-03-27 06:22:00,36.0,25.0,-100.00,South,188,4.0,8.0,65,0.00,,,0.00,0.000000,,2013-03-27 11:22:00,
2013-03-27 06:32:00,36.0,25.0,-100.00,South,188,4.0,8.0,65,0.00,,,0.00,0.000000,,2013-03-27 11:32:00,
2013-03-27 07:02:00,35.0,26.0,-100.00,SW,215,3.0,6.0,68,0.00,,,0.00,0.000000,,2013-03-27 12:02:00,
2013-03-27 07:12:00,35.0,26.0,-100.00,SW,215,3.0,6.0,68,0.00,,,0.00,0.000000,,2013-03-27 12:12:00,
2013-03-27 07:23:00,35.0,26.0,-100.00,SW,215,3.0,6.0,68,0.00,,,0.00,0.000000,,2013-03-27 12:23:00,
2013-03-27 07:32:00,35.0,26.0,-100.00,SW,215,3.0,6.0,68,0.00,,,0.00,0.000000,,2013-03-27 12:32:00,
2013-03-27 08:02:00,37.0,28.0,-100.00,SW,217,2.0,6.0,69,0.00,,,0.00,33.000000,,2013-03-27 13:02:00,
2013-03-27 08:12:00,37.0,28.0,-100.00,SW,217,2.0,6.0,69,0.00,,,0.00,33.000000,,2013-03-27 13:12:00,
2013-03-27 08:22:00,37.0,28.0,-100.00,SW,217,2.0,6.0,69,0.00,,,0.00,33.000000,,2013-03-27 13:22:00,
2013-03-27 08:32:00,37.0,28.0,-100.00,SW,217,2.0,6.0,69,0.00,,,0.00,33.000000,,2013-03-27 13:32:00,
2013-03-27 09:02:00,41.0,29.0,-100.00,SSW,195,4.0,7.0,63,0.00,,,0.00,252.000000,,2013-03-27 14:02:00,
2013-03-27 09:12:00,41.0,29.0,-100.00,SSW,195,4.0,7.0,63,0.00,,,0.00,252.000000,,2013-03-27 14:12:00,
2013-03-27 09:22:00,41.0,29.0,-100.00,SSW,195,4.0,7.0,63,0.00,,,0.00,252.000000,,2013-03-27 14:22:00,
2013-03-27 09:32:00,41.0,29.0,-100.00,SSW,195,4.0,7.0,63,0.00,,,0.00,252.000000,,2013-03-27 14:32:00,
2013-03-27 10:02:00,44.0,31.0,-100.00,South,191,6.0,12.0,59,0.00,,,0.00,500.000000,,2013-03-27 15:02:00,
2013-03-27 10:12:00,44.0,31.0,-100.00,South,191,6.0,12.0,59,0.00,,,0.00,500.000000,,2013-03-27 15:12:00,
2013-03-27 10:22:00,44.0,31.0,-100.00,South,191,6.0,12.0,59,0.00,,,0.00,500.000000,,2013-03-27 15:22:00,
2013-03-27 10:33:00,44.0,31.0,-100.00,South,191,6.0,12.0,59,0.00,,,0.00,500.000000,,2013-03-27 15:33:00,
2013-03-27 11:03:00,47.0,30.0,-100.00,South,189,6.0,12.0,51,0.00,,,0.00,723.000000,,2013-03-27 16:03:00,
2013-03-27 11:13:00,47.0,30.0,-100.00,South,189,6.0,12.0,51,0.00,,,0.00,723.000000,,2013-03-27 16:13:00,
2013-03-27 11:22:00,47.0,30.0,-100.00,South,189,6.0,12.0,51,0.00,,,0.00,723.000000,,2013-03-27 16:22:00,
2013-03-27 11:32:00,47.0,30.0,-100.00,South,189,6.0,12.0,51,0.00,,,0.00,723.000000,,2013-03-27 16:32:00,
2013-03-27 13:12:00,52.0,28.0,-100.00,SSW,193,5.0,12.0,40,-99.99,,,0.00,971.000000,,2013-03-27 18:12:00,
2013-03-27 13:22:00,52.0,28.0,-100.00,SSW,193,5.0,12.0,40,-99.99,,,0.00,971.000000,,2013-03-27 18:22:00,
2013-03-27 13:32:00,52.0,28.0,-100.00,SSW,193,5.0,12.0,40,-99.99,,,0.00,971.000000,,2013-03-27 18:32:00,
2013-03-27 14:02:00,53.0,29.0,-100.00,SW,231,5.0,11.0,40,0.00,,,0.00,952.000000,,2013-03-27 19:02:00,
2013-03-27 14:12:00,53.0,29.0,-100.00,SW,231,5.0,11.0,40,0.00,,,0.00,952.000000,,2013-03-27 19:12:00,
2013-03-27 14:22:00,53.0,29.0,-100.00,SW,231,5.0,11.0,40,0.00,,,0.00,952.000000,,2013-03-27 19:22:00,
2013-03-27 14:32:00,53.0,29.0,-100.00,SW,231,5.0,11.0,40,0.00,,,0.00,952.000000,,2013-03-27 19:32:00,
2013-03-27 15:02:00,54.0,28.0,-100.00,South,182,5.0,11.0,37,0.00,,,0.00,973.000000,,2013-03-27 20:02:00,
2013-03-27 15:12:00,54.0,28.0,-100.00,South,182,5.0,11.0,37,0.00,,,0.00,973.000000,,2013-03-27 20:12:00,
2013-03-27 15:22:00,54.0,28.0,-100.00,South,182,5.0,11.0,37,0.00,,,0.00,973.000000,,2013-03-27 20:22:00,
2013-03-27 15:32:00,54.0,28.0,-100.00,South,182,5.0,11.0,37,0.00,,,0.00,973.000000,,2013-03-27 20:32:00,
2013-03-27 16:02:00,56.0,29.0,-100.00,SSW,201,5.0,13.0,36,0.00,,,0.00,850.000000,,2013-03-27 21:02:00,
2013-03-27 16:12:00,56.0,29.0,-100.00,SSW,201,5.0,13.0,36,0.00,,,0.00,850.000000,,2013-03-27 21:12:00,
2013-03-27 16:22:00,56.0,29.0,-100.00,SSW,201,5.0,13.0,36,0.00,,,0.00,850.000000,,2013-03-27 21:22:00,
2013-03-27 16:32:00,56.0,29.0,-100.00,SSW,201,5.0,13.0,36,0.00,,,0.00,850.000000,,2013-03-27 21:32:00,
2013-03-27 17:03:00,56.0,29.0,-100.00,SSW,207,5.0,11.0,35,0.00,,,0.00,681.000000,,2013-03-27 22:03:00,
2013-03-27 17:12:00,56.0,29.0,-100.00,SSW,207,5.0,11.0,35,0.00,,,0.00,681.000000,,2013-03-27 22:12:00,
2013-03-27 17:23:00,56.0,29.0,-100.00,SSW,207,5.0,11.0,35,0.00,,,0.00,681.000000,,2013-03-27 22:23:00,
2013-03-27 17:33:00,56.0,29.0,-100.00,SSW,207,5.0,11.0,35,0.00,,,0.00,681.000000,,2013-03-27 22:33:00,
2013-03-27 18:02:00,56.0,29.0,-100.00,WSW,246,4.0,11.0,35,0.00,,,0.00,453.000000,,2013-03-27 23:02:00,
2013-03-27 18:12:00,56.0,29.0,-100.00,WSW,246,4.0,11.0,35,0.00,,,0.00,453.000000,,2013-03-27 23:12:00,
2013-03-27 18:22:00,56.0,29.0,-100.00,WSW,246,4.0,11.0,35,0.00,,,0.00,453.000000,,2013-03-27 23:22:00,
2013-03-27 18:32:00,56.0,29.0,-100.00,WSW,246,4.0,11.0,35,0.00,,,0.00,453.000000,,2013-03-27 23:32:00,
2013-03-27 19:02:00,54.0,27.0,-100.00,South,169,2.0,9.0,35,0.00,,,-99.99,212.000000,,2013-03-28 00:02:00,
2013-03-27 19:12:00,54.0,27.0,-100.00,South,169,2.0,9.0,35,0.00,,,-99.99,212.000000,,2013-03-28 00:12:00,
2013-03-27 19:22:00,54.0,27.0,-100.00,South,169,2.0,9.0,35,0.00,,,-99.99,212.000000,,2013-03-28 00:22:00,
2013-03-27 19:32:00,54.0,27.0,-100.00,South,169,2.0,9.0,35,0.00,,,-99.99,212.000000,,2013-03-28 00:32:00,